Showing default

COSMOS 1988 (GLONASS), 19750

Orbit data source: Space-Track

COSMOS 1988 (GLONASS), 19750 is a payload satellite owned by UNKS (CIS) in MEO that was launched on Tue, 10 Jan 1989 UTC via a PROTON-K/DM-2 launch vehicle from the Tyuratam Missile And Space Complex (TTMTR). Payload-class satellites include a variety of spacecraft equipped with specific instruments for various scientific and technological missions. These include communications satellites like Starlink; space stations such as the ISS; scientific satellites like the Hubble; Earth observation satellites from companies like Planet Labs, Umbra, and HawkEye 360; GPS; miniature CubeSats for education and research; and military/defense satellites.

Loading next visibility...
Identifier
19750, 1989-001B
Orbit
MEO
Last TLE update
3 days ago
Origin
Manufacturer
Omsk Av. Zav.
Mission
Non-operational Defense Navigation
Bus & Motor
URAGAN, Unknown motor
Mass
1,300 kg wet, ~1,200 kg dry
Launch date (UTC)
1989-01-10 (36 years ago)
Launch vehicle
PROTON-K/DM-2
Launch site
Tyuratam Missile And Space Complex (TTMTR)
Object type
Payload
Rocket body
Debris
Shape & HBR
Cyl + 2 Pan, 8.356 m
Radar Cross Section
14.707 m², Large (>1 m²)

Expand to show TLE details & history

TLE from 3 days ago
0 COSMOS 1988 (GLONASS)
1 19750U 89001B   25181.31103814 -.00000030  00000-0  00000-0 0  9992
2 19750  64.7432  84.6748 0014802 220.0180 327.5569  2.13101806283782
Epoch: 2025-06-30T07:27Z
TLE epoch observation values (Epoch: 2025-06-30T07:27:53.695Z)
Latitude
-6.79661°
Longitude
-122.69407°
Altitude
19,099.75 km
Speed
3.958 km/s
True Right ascension
17h 51m 36s
True Declination
-6° 47' 07"
Sunlit
Object was in daylight at epoch
Visualization orbit readout
Latitude
-10.15597°
Longitude
-121.17205°
Altitude
19,099.284 km
Speed
3.958 km/s
Apparent Right ascension
18h 34m 32s
Apparent Declination
-21° 17' 48"
Sunlit
Object is in daylight
Visualization observer readout
Local Sidereal Time
14:54:23
Azimuth
129.13° SE
Elevation
10.164°
Doppler factor
1
Orbital elements
Apogee altitude
19,167.283 km
Perigee altitude
19,091.77 km
Semi-major axis
25,507.664 km
Eccentricity
0.00148
Inclination
64.7432°
RAAN
84.6748°
Arg. of periapsis
220.018°
True anomaly
Unknown
Mean anomaly
327.5569°
Eccentric anomaly
Unknown
Mean motion
0.53277 °/min
Orbital period
675.72 mins
BSTAR
0
Loading maneuver chart data...
Loading SW <> Apogee altitude chart data...
Loading historical data...
Loading historical data...
Loading historical data...
Loading historical data...
Loading historical data...
Loading historical data...
Loading historical data...

COSMOS 1988 (GLONASS) Visibility forecast

Observer location: undefined°, undefined°

Span
Click to sort rows by Start time (UTC) header in descending order
Start Az.
Max El. time (UTC)
Max El. Az.
Max El.
End time (UTC)
End Az.
356 mins2025-07-03 18:59:15.712Z208.177° SW2025-07-03 21:30:15.712Z311.167° NW42.513°2025-07-04 00:55:15.712Z94.977° ESE
|